^^
Datos históricos de la estación: Murcia-Puente Tocinos
Diario Informe para Diciembre 31, 2019 Unidades:  Métrico    Ingés   Ambas
Diario Semanal Mensual Anual
  Máxima: Mínima: Promedio:
Temperatura: 13.7 °C 5.6 °C 9.3 °C
Punto de rocio: 8.9 °C 3.9 °C 6.6 °C
Humedad: 90% 71% 84%
Velocidad viento: 9.5km/h 0km/h 5.3km/h
Racha viento: 16.1km/h - -
Viento- - SSE
Presión: 1033.7 hPa 1030.4 hPa -
Precipitación: 0.0 mm    
 
 
Tabla de datos para Diciembre 31, 2019
Hora Temperatura Punto de rocio Presión Viento Velocidad viento Racha viento Humedad Intensidad lluvia(por hora) Nubes
00:04 8.9 °C 6.6 °C 1031.4 hPa Calm     86% 0.0 mm
00:09 8.8 °C 6.6 °C 1031.4 hPa Calm   2.9 km/h 86% 0.0 mm
00:14 8.7 °C 6.5 °C 1031.4 hPa Calm   3.7 km/h 86% 0.0 mm
00:19 8.7 °C 6.5 °C 1031.4 hPa Calm   3.7 km/h 86% 0.0 mm
00:24 8.7 °C 6.6 °C 1031.4 hPa Calm   3.2 km/h 86.8% 0.0 mm
00:29 8.6 °C 6.5 °C 1031.3 hPa Calm     86.9% 0.0 mm
00:34 8.6 °C 6.5 °C 1031.3 hPa Calm   6.4 km/h 86.8% 0.0 mm
00:39 8.5 °C 6.4 °C 1031.3 hPa Calm   8 km/h 87% 0.0 mm
00:44 8.4 °C 6.3 °C 1031.1 hPa SE 1.6 km/h 8.4 km/h 87% 0.0 mm
00:49 8.3 °C 6.3 °C 1031.1 hPa SE 2.9 km/h 8 km/h 87% 0.0 mm
00:54 8.3 °C 6.3 °C 1031.1 hPa SE 3.1 km/h 5 km/h 87% 0.0 mm
00:59 8.2 °C 6.2 °C 1031.1 hPa SE 3.2 km/h 5.6 km/h 87% 0.0 mm
01:04 8.2 °C 6.1 °C 1031.1 hPa SSE 3.2 km/h 4.8 km/h 87% 0.0 mm
01:09 8.1 °C 6.1 °C 1031.1 hPa SSE 3.2 km/h 4.8 km/h 87% 0.0 mm
01:14 8.1 °C 6 °C 1030.8 hPa SSE 2.6 km/h 3.7 km/h 87% 0.0 mm
01:19 8 °C 6.1 °C 1030.8 hPa SSE 2.2 km/h 3.9 km/h 87.8% 0.0 mm
01:24 7.9 °C 6.1 °C 1030.8 hPa SSE 0.8 km/h 4.7 km/h 88% 0.0 mm
01:29 7.9 °C 6.1 °C 1030.8 hPa Calm   5.6 km/h 88% 0.0 mm
01:34 7.9 °C 6.1 °C 1030.8 hPa Sur 1.8 km/h 7.4 km/h 88% 0.0 mm
01:39 7.9 °C 6.1 °C 1030.8 hPa SSE 2.9 km/h 8 km/h 88% 0.0 mm
01:44 7.9 °C 6.1 °C 1030.8 hPa Sur 3.5 km/h 8 km/h 88% 0.0 mm
01:49 7.9 °C 6 °C 1030.8 hPa Sur 3.9 km/h 7.4 km/h 88% 0.0 mm
01:54 7.8 °C 6 °C 1030.8 hPa SSE 4.4 km/h 8 km/h 88% 0.0 mm
01:59 7.8 °C 5.9 °C 1030.8 hPa Sur 4.7 km/h 8.4 km/h 88% 0.0 mm
02:04 7.8 °C 5.9 °C 1030.8 hPa Sur 4.7 km/h 9.3 km/h 88% 0.0 mm
02:09 7.8 °C 5.9 °C 1030.8 hPa SSO 4.6 km/h 9.7 km/h 88% 0.0 mm
02:14 7.7 °C 5.9 °C 1030.7 hPa SSO 5.3 km/h 8 km/h 88% 0.0 mm
02:19 7.7 °C 5.8 °C 1030.7 hPa Sur 5.8 km/h 8 km/h 88% 0.0 mm
02:24 7.7 °C 5.8 °C 1030.7 hPa SSE 5.3 km/h 11.1 km/h 88% 0.0 mm
02:29 7.7 °C 5.8 °C 1030.7 hPa SSE 5 km/h 11.3 km/h 88% 0.0 mm
02:34 7.6 °C 5.7 °C 1030.7 hPa SSE 5.5 km/h 8.4 km/h 88% 0.0 mm
02:39 7.4 °C 5.6 °C 1030.7 hPa Sur 5.8 km/h 8 km/h 88% 0.0 mm
02:44 7.4 °C 5.6 °C 1030.7 hPa Sur 5.3 km/h 8 km/h 88% 0.0 mm
02:49 7.4 °C 5.6 °C 1030.7 hPa SSO 5 km/h 8 km/h 88% 0.0 mm
02:54 7.4 °C 5.6 °C 1030.8 hPa SO 4.8 km/h 8.4 km/h 88% 0.0 mm
02:59 7.4 °C 5.6 °C 1030.8 hPa SO 4.7 km/h 8.4 km/h 88% 0.0 mm
03:04 7.4 °C 5.6 °C 1030.8 hPa SO 4.9 km/h 8 km/h 88% 0.0 mm
03:09 7.4 °C 5.6 °C 1030.8 hPa SO 5 km/h 8 km/h 88% 0.0 mm
03:14 7.4 °C 5.6 °C 1030.8 hPa SO 4.3 km/h 8 km/h 88% 0.0 mm
03:19 7.4 °C 5.5 °C 1030.8 hPa SSO 3.9 km/h 8 km/h 88% 0.0 mm
03:24 7.3 °C 5.5 °C 1030.8 hPa SSO 4.4 km/h 9.3 km/h 88% 0.0 mm
03:29 7.3 °C 5.5 °C 1030.8 hPa SSO 4.6 km/h 9.7 km/h 88% 0.0 mm
03:34 7.3 °C 5.5 °C 1030.8 hPa SSO 5.4 km/h 9.7 km/h 88% 0.0 mm
03:39 7.3 °C 5.5 °C 1030.8 hPa SSO 5.8 km/h 9.7 km/h 88% 0.0 mm
03:44 7.3 °C 5.4 °C 1030.8 hPa SSO 5.8 km/h 9.7 km/h 87.3% 0.0 mm
03:49 7.3 °C 5.3 °C 1030.8 hPa SSE 5.8 km/h 9.3 km/h 87% 0.0 mm
03:54 7.3 °C 5.3 °C 1030.9 hPa Sur 5.3 km/h 9.7 km/h 87% 0.0 mm
03:59 7.2 °C 5.2 °C 1030.9 hPa Sur 5 km/h 9.7 km/h 87% 0.0 mm
04:04 7.2 °C 5.1 °C 1030.9 hPa Sur 5.5 km/h 9.7 km/h 87% 0.0 mm
04:09 7.1 °C 5.1 °C 1030.9 hPa Sur 5.8 km/h 11.1 km/h 87% 0.0 mm
04:14 7.1 °C 5 °C 1030.8 hPa Sur 6.4 km/h 11.3 km/h 87% 0.0 mm
04:19 6.9 °C 4.9 °C 1030.8 hPa SSE 6.9 km/h 11.3 km/h 87% 0.0 mm
04:24 6.8 °C 4.8 °C 1030.8 hPa Sur 6.9 km/h 11.3 km/h 87% 0.0 mm
04:29 6.7 °C 4.8 °C 1030.8 hPa SSE 6.9 km/h 11.3 km/h 88% 0.0 mm
04:34 6.5 °C 4.7 °C 1030.8 hPa Sur 7.3 km/h 13 km/h 88% 0.0 mm
04:39 6.4 °C 4.6 °C 1030.8 hPa SSE 7.6 km/h 12.9 km/h 88.1% 0.0 mm
04:44 6.4 °C 4.7 °C 1030.7 hPa Sur 7.6 km/h 11.3 km/h 89% 0.0 mm
04:49 6.3 °C 4.6 °C 1030.7 hPa Sur 7.6 km/h 13.7 km/h 89% 0.0 mm
04:54 6.3 °C 4.6 °C 1030.7 hPa Sur 8.1 km/h 14.5 km/h 89% 0.0 mm
04:59 6.3 °C 4.6 °C 1030.6 hPa SSO 8.4 km/h 12.9 km/h 89% 0.0 mm
05:04 6.4 °C 4.7 °C 1030.6 hPa Sur 7.8 km/h 11.3 km/h 89% 0.0 mm
05:09 6.4 °C 4.7 °C 1030.6 hPa Sur 7.6 km/h 11.9 km/h 89% 0.0 mm
05:14 6.4 °C 4.7 °C 1030.6 hPa Sur 8.1 km/h 11.9 km/h 89% 0.0 mm
05:19 6.4 °C 4.6 °C 1030.6 hPa Sur 8.4 km/h 11.3 km/h 88.2% 0.0 mm
05:24 6.4 °C 4.6 °C 1030.7 hPa Sur 7.9 km/h 11.1 km/h 88% 0.0 mm
05:29 6.4 °C 4.6 °C 1030.7 hPa SSO 7.6 km/h 11.3 km/h 88% 0.0 mm
05:34 6.4 °C 4.6 °C 1030.7 hPa Sur 7.6 km/h 11.3 km/h 88% 0.0 mm
05:39 6.4 °C 4.5 °C 1030.8 hPa Sur 7.6 km/h 11.3 km/h 88% 0.0 mm
05:44 6.3 °C 4.4 °C 1030.8 hPa Sur 7.2 km/h 9.7 km/h 88% 0.0 mm
05:49 6.3 °C 4.4 °C 1030.8 hPa Sur 6.9 km/h 10.3 km/h 88% 0.0 mm
05:54 6.3 °C 4.4 °C 1030.9 hPa Sur 7.3 km/h 11.3 km/h 88% 0.0 mm
05:59 6.2 °C 4.3 °C 1030.9 hPa Sur 7.6 km/h 11.9 km/h 88% 0.0 mm
06:04 6.2 °C 4.3 °C 1030.9 hPa Sur 7.6 km/h 11.3 km/h 88% 0.0 mm
06:09 6.2 °C 4.3 °C 1031.0 hPa Sur 7.6 km/h 11.3 km/h 88% 0.0 mm
06:14 6.1 °C 4.3 °C 1031.0 hPa Sur 7.6 km/h 11.3 km/h 88% 0.0 mm
06:19 6.1 °C 4.4 °C 1031.0 hPa SSO 7.6 km/h 11.3 km/h 88.9% 0.0 mm
06:24 6.2 °C 4.5 °C 1031.1 hPa SSO 7.6 km/h 11.3 km/h 89% 0.0 mm
06:29 6.3 °C 4.6 °C 1031.1 hPa SSO 7.6 km/h 11.3 km/h 89% 0.0 mm
06:34 6.3 °C 4.7 °C 1031.1 hPa SSO 7.2 km/h 11.1 km/h 89% 0.0 mm
06:39 6.4 °C 4.8 °C 1031.1 hPa SO 6.9 km/h 11.3 km/h 89% 0.0 mm
06:44 6.6 °C 4.8 °C 1031.1 hPa SSO 6.9 km/h 11.9 km/h 88.3% 0.0 mm
06:49 6.6 °C 4.8 °C 1031.1 hPa SSO 6.9 km/h 11.9 km/h 88% 0.0 mm
06:54 6.7 °C 4.8 °C 1031.3 hPa Sur 7.3 km/h 11.3 km/h 87.6% 0.0 mm
06:59 6.7 °C 4.7 °C 1031.3 hPa Sur 7.6 km/h 9.7 km/h 87% 0.0 mm
07:04 6.6 °C 4.6 °C 1031.3 hPa SSO 5.9 km/h 8.4 km/h 87% 0.0 mm
07:09 6.5 °C 4.5 °C 1031.5 hPa SSO 5 km/h 8 km/h 87% 0.0 mm
07:14 6.4 °C 4.4 °C 1031.5 hPa SSO 5 km/h 9.3 km/h 87% 0.0 mm
07:19 6.4 °C 4.4 °C 1031.5 hPa SSO 5 km/h 9.7 km/h 87% 0.0 mm
07:24 6.4 °C 4.4 °C 1031.7 hPa Sur 5 km/h 9.7 km/h 87% 0.0 mm
07:29 6.3 °C 4.3 °C 1031.7 hPa Sur 5 km/h 9.7 km/h 87% 0.0 mm
07:34 6.2 °C 4.2 °C 1031.7 hPa Sur 5 km/h 8 km/h 87% 0.0 mm
07:39 6.2 °C 4.2 °C 1031.8 hPa Sur 5 km/h 8 km/h 87% 0.0 mm
07:44 6.2 °C 4.2 °C 1031.8 hPa SSE 4.8 km/h 8 km/h 87% 0.0 mm
07:49 6 °C 4 °C 1031.8 hPa SE 4.6 km/h 9.5 km/h 87% 0.0 mm
07:54 5.9 °C 3.9 °C 1031.8 hPa SSE 5.6 km/h 10 km/h 87.4% 0.0 mm
07:59 5.8 °C 3.9 °C 1031.8 hPa SSE 6.5 km/h 9.7 km/h 88% 0.0 mm
08:04 5.8 °C 3.9 °C 1031.8 hPa SSE 6 km/h 9.7 km/h 88% 0.0 mm
08:09 5.7 °C 3.9 °C 1031.8 hPa SSE 5.8 km/h 11.1 km/h 88.6% 0.0 mm
08:14 5.6 °C 3.9 °C 1031.8 hPa Sur 6.5 km/h 11.3 km/h 89% 0.0 mm
08:19 5.6 °C 4 °C 1031.8 hPa Sur 6.9 km/h 9.7 km/h 89.5% 0.0 mm
08:24 5.6 °C 4.1 °C 1031.8 hPa SSO 6.2 km/h 8.4 km/h 90% 0.0 mm
08:29 5.7 °C 4.1 °C 1031.8 hPa SO 5.8 km/h 9.3 km/h 90% 0.0 mm
08:34 5.7 °C 4.2 °C 1031.8 hPa SO 5.3 km/h 9.7 km/h 90% 0.0 mm
08:39 5.8 °C 4.3 °C 1032.0 hPa SSO 5 km/h 10 km/h 90% 0.0 mm
08:44 5.9 °C 4.4 °C 1032.0 hPa Sur 5 km/h 10 km/h 90% 0.0 mm
08:49 5.9 °C 4.3 °C 1032.0 hPa SSE 5 km/h 9.7 km/h 89% 0.0 mm
08:54 6 °C 4.3 °C 1032.1 hPa SSE 5.9 km/h 9.7 km/h 89% 0.0 mm
08:59 6 °C 4.3 °C 1032.1 hPa SSE 6.5 km/h 9.5 km/h 89% 0.0 mm
09:04 5.9 °C 4.2 °C 1032.1 hPa SSE 6 km/h 9.7 km/h 89% 0.0 mm
09:09 5.9 °C 4.2 °C 1032.4 hPa Sur 5.8 km/h 11.9 km/h 89% 0.0 mm
09:14 5.9 °C 4.2 °C 1032.4 hPa SSE 6.5 km/h 11.9 km/h 89% 0.0 mm
09:19 5.9 °C 4.2 °C 1032.4 hPa Sur 6.9 km/h 11.3 km/h 89% 0.0 mm
09:24 5.9 °C 4.2 °C 1032.6 hPa Sur 6.9 km/h 9.7 km/h 89% 0.0 mm
09:29 6 °C 4.4 °C 1032.6 hPa SSE 6.9 km/h 11.1 km/h 89% 0.0 mm
09:34 6.1 °C 4.5 °C 1032.6 hPa Sur 6.6 km/h 11.3 km/h 89% 0.0 mm
09:39 6.2 °C 4.5 °C 1032.7 hPa SSE 6.5 km/h 9.7 km/h 89% 0.0 mm
09:44 6.3 °C 4.7 °C 1032.7 hPa Sur 6.1 km/h 9.5 km/h 89% 0.0 mm
09:49 6.4 °C 4.7 °C 1032.7 hPa Sur 5.8 km/h 11.1 km/h 88.5% 0.0 mm
09:54 6.6 °C 4.7 °C 1032.9 hPa Sur 6.5 km/h 11.9 km/h 88% 0.0 mm
09:59 6.7 °C 4.8 °C 1032.9 hPa Sur 6.9 km/h 11.3 km/h 88% 0.0 mm
10:04 6.8 °C 4.9 °C 1032.9 hPa Sur 6.9 km/h 11.3 km/h 87.7% 0.0 mm
10:09 7 °C 5 °C 1033.2 hPa Sur 6.9 km/h 11.3 km/h 87% 0.0 mm
10:14 7.2 °C 5.1 °C 1033.2 hPa Sur 6.6 km/h 10 km/h 86.6% 0.0 mm
10:19 7.3 °C 5.1 °C 1033.2 hPa Sur 6.5 km/h 11.1 km/h 86% 0.0 mm
10:24 7.5 °C 5.2 °C 1033.4 hPa Sur 7.2 km/h 13 km/h 85.1% 0.0 mm
10:29 7.7 °C 5.3 °C 1033.4 hPa SSO 7.6 km/h 13 km/h 85% 0.0 mm
10:34 7.9 °C 5.4 °C 1033.4 hPa Sur 7.6 km/h 13 km/h 84.3% 0.0 mm
10:39 8 °C 5.3 °C 1033.5 hPa SSO 7.6 km/h 13 km/h 83% 0.0 mm
10:44 8.2 °C 5.5 °C 1033.5 hPa Sur 7.6 km/h 12.9 km/h 83.2% 0.0 mm
10:49 8.3 °C 5.5 °C 1033.5 hPa SSO 7.6 km/h 13 km/h 82.7% 0.0 mm
10:54 8.4 °C 5.5 °C 1033.6 hPa Sur 7.6 km/h 12.9 km/h 82% 0.0 mm
10:59 8.5 °C 5.7 °C 1033.6 hPa SSO 7.6 km/h 11.3 km/h 82% 0.0 mm
11:04 8.7 °C 5.8 °C 1033.6 hPa SSO 7.1 km/h 11.9 km/h 82% 0.0 mm
11:09 8.8 °C 5.9 °C 1033.7 hPa SO 6.9 km/h 14 km/h 82% 0.0 mm
11:14 8.9 °C 6 °C 1033.7 hPa SO 7.3 km/h 14.5 km/h 82% 0.0 mm
11:19 8.9 °C 6 °C 1033.7 hPa SO 7.6 km/h 14.8 km/h 81.9% 0.0 mm
11:24 9 °C 6.1 °C 1033.7 hPa SO 6.5 km/h 14.5 km/h 81.9% 0.0 mm
11:29 9.1 °C 6.1 °C 1033.7 hPa SSO 5.8 km/h 14.8 km/h 82% 0.0 mm
11:34 9.1 °C 6.2 °C 1033.7 hPa SSO 6.9 km/h 14.8 km/h 82% 0.0 mm
11:39 9.2 °C 6.2 °C 1033.7 hPa SSO 7.6 km/h 14.8 km/h 82% 0.0 mm
11:44 9.3 °C 6.4 °C 1033.7 hPa SSO 7.6 km/h 13.7 km/h 82% 0.0 mm
11:49 9.4 °C 6.5 °C 1033.7 hPa SSO 7.6 km/h 14.5 km/h 82% 0.0 mm
11:54 9.6 °C 6.7 °C 1033.7 hPa Sur 8.8 km/h 14.5 km/h 82% 0.0 mm
11:59 9.8 °C 7 °C 1033.5 hPa Sur 9.5 km/h 15.6 km/h 82.8% 0.0 mm
12:04 9.8 °C 7.1 °C 1033.5 hPa Sur 9 km/h 16.1 km/h 83% 0.0 mm
12:09 10 °C 7.1 °C 1033.5 hPa Sur 8.7 km/h 14.8 km/h 82.3% 0.0 mm
12:14 10.1 °C 7.2 °C 1033.2 hPa SSE 8.7 km/h 14.8 km/h 82% 0.0 mm
12:19 10.2 °C 7.1 °C 1033.2 hPa Sur 8.7 km/h 14.5 km/h 81.5% 0.0 mm
12:24 10.1 °C 7.1 °C 1033.2 hPa SSO 8.7 km/h 15.6 km/h 81.5% 0.0 mm
12:29 10.2 °C 7.2 °C 1033.0 hPa SSO 8.7 km/h 16.1 km/h 82% 0.0 mm
12:34 10.3 °C 7.3 °C 1033.0 hPa Sur 8.7 km/h 14.8 km/h 82% 0.0 mm
12:39 10.3 °C 7.3 °C 1033.0 hPa SSO 8.7 km/h 14.5 km/h 82% 0.0 mm
12:44 10.4 °C 7.4 °C 1032.9 hPa Sur 8.7 km/h 13.7 km/h 82% 0.0 mm
12:49 10.5 °C 7.5 °C 1032.9 hPa SSO 8.7 km/h 14.5 km/h 81.3% 0.0 mm
12:54 10.7 °C 7.6 °C 1032.9 hPa Sur 8.5 km/h 13 km/h 81.5% 0.0 mm
12:59 10.9 °C 7.6 °C 1032.6 hPa Sur 8.4 km/h 12.9 km/h 80.4% 0.0 mm
13:04 11 °C 7.7 °C 1032.6 hPa SSO 7.4 km/h 14.8 km/h 79.9% 0.0 mm
13:09 11.1 °C 7.7 °C 1032.6 hPa Sur 6.9 km/h 14.5 km/h 79.6% 0.0 mm
13:14 11.2 °C 7.8 °C 1032.4 hPa Sur 7.3 km/h 13 km/h 79.4% 0.0 mm
13:19 11.3 °C 7.8 °C 1032.4 hPa SSE 7.6 km/h 14.8 km/h 78.6% 0.0 mm
13:24 11.4 °C 7.7 °C 1032.4 hPa SSE 8.1 km/h 14.5 km/h 78% 0.0 mm
13:29 11.6 °C 7.8 °C 1032.0 hPa SSE 8.4 km/h 13 km/h 77.5% 0.0 mm
13:34 11.7 °C 7.8 °C 1032.0 hPa SE 8.4 km/h 14.8 km/h 77.1% 0.0 mm
13:39 11.6 °C 7.8 °C 1032.0 hPa Sur 8.4 km/h 14.5 km/h 77.6% 0.0 mm
13:44 11.4 °C 7.7 °C 1031.7 hPa SSE 8.6 km/h 13.7 km/h 78% 0.0 mm
13:49 11.3 °C 7.7 °C 1031.7 hPa SE 8.7 km/h 14.5 km/h 78.8% 0.0 mm
13:54 11.3 °C 7.7 °C 1031.7 hPa SE 8.7 km/h 14.5 km/h 79% 0.0 mm
13:59 11.4 °C 7.9 °C 1031.5 hPa SSE 8.7 km/h 11.9 km/h 79.1% 0.0 mm
14:04 11.5 °C 8 °C 1031.5 hPa SSE 8 km/h 11.3 km/h 79% 0.0 mm
14:09 11.7 °C 8.1 °C 1031.5 hPa SSE 7.6 km/h 10 km/h 78.6% 0.0 mm
14:14 11.8 °C 8.1 °C 1031.2 hPa SSE 7.2 km/h 10 km/h 78% 0.0 mm
14:19 12 °C 8.2 °C 1031.2 hPa Sur 6.9 km/h 11.1 km/h 77.4% 0.0 mm
14:24 12.2 °C 8.2 °C 1031.2 hPa Sur 6.3 km/h 11.3 km/h 76.8% 0.0 mm
14:29 12.3 °C 8.2 °C 1031.0 hPa SSO 5.8 km/h 9.7 km/h 76% 0.0 mm
14:34 12.3 °C 8.2 °C 1031.0 hPa Sur 5.3 km/h 9.7 km/h 75.9% 0.0 mm
14:39 12.4 °C 8.2 °C 1031.0 hPa SO 5 km/h 8 km/h 75.3% 0.0 mm
14:44 12.6 °C 8.2 °C 1030.9 hPa SSE 4.8 km/h 8 km/h 74.7% 0.0 mm
14:49 12.7 °C 8.3 °C 1030.9 hPa Sur 4.7 km/h 8.4 km/h 74.4% 0.0 mm
14:54 12.8 °C 8.3 °C 1030.9 hPa Sur 4.7 km/h 8 km/h 74% 0.0 mm
14:59 12.8 °C 8.3 °C 1030.8 hPa SE 4.7 km/h 5.6 km/h 74% 0.0 mm
15:04 12.9 °C 8.3 °C 1030.8 hPa SSE 3.5 km/h 5 km/h 73.4% 0.0 mm
15:09 13.1 °C 8.4 °C 1030.8 hPa SO 2.9 km/h 5.6 km/h 73% 0.0 mm
15:14 13.2 °C 8.4 °C 1030.8 hPa Oeste 2.5 km/h 5.6 km/h 72.7% 0.0 mm
15:19 13.3 °C 8.4 °C 1030.8 hPa Sur 2.2 km/h 5.8 km/h 72.3% 0.0 mm
15:24 13.4 °C 8.5 °C 1030.8 hPa SSE 2.2 km/h 6.4 km/h 72% 0.0 mm
15:29 13.6 °C 8.5 °C 1030.6 hPa NE 2.2 km/h 7.4 km/h 71.3% 0.0 mm
15:34 13.5 °C 8.3 °C 1030.6 hPa NE 2.9 km/h 8 km/h 71% 0.0 mm
15:39 13.6 °C 8.6 °C 1030.7 hPa NNE 3.2 km/h 4.8 km/h 71.9% 0.0 mm
15:44 13.6 °C 8.6 °C 1030.7 hPa NNE 1.2 km/h 3.2 km/h 71.6% 0.0 mm
15:49 13.6 °C 8.6 °C 1030.7 hPa Calm   4.7 km/h 71.5% 0.0 mm
15:54 13.7 °C 8.5 °C 1030.7 hPa NNO 1.4 km/h 7.6 km/h 71% 0.0 mm
15:59 13.6 °C 8.5 °C 1030.6 hPa NE 2.2 km/h 8 km/h 71.2% 0.0 mm
16:04 13.6 °C 8.7 °C 1030.6 hPa ENE 3.2 km/h 8 km/h 72% 0.0 mm
16:09 13.6 °C 8.7 °C 1030.6 hPa ENE 3.9 km/h 7.4 km/h 72% 0.0 mm
16:14 13.6 °C 8.7 °C 1030.5 hPa Este 3.9 km/h 8 km/h 72% 0.0 mm
16:19 13.6 °C 8.7 °C 1030.5 hPa ENE 3.9 km/h 9.3 km/h 72% 0.0 mm
16:24 13.6 °C 8.7 °C 1030.5 hPa ENE 4.4 km/h 10 km/h 72% 0.0 mm
16:29 13.7 °C 8.7 °C 1030.5 hPa NNE 4.7 km/h 9.7 km/h 72% 0.0 mm
16:34 13.7 °C 8.8 °C 1030.5 hPa NE 3.7 km/h 9.3 km/h 72.2% 0.0 mm
16:39 13.7 °C 8.7 °C 1030.5 hPa NE 3.2 km/h 9.7 km/h 72% 0.0 mm
16:44 13.7 °C 8.7 °C 1030.5 hPa NNE 4.1 km/h 8 km/h 72% 0.0 mm
16:49 13.7 °C 8.7 °C 1030.5 hPa NNE 4.7 km/h 8 km/h 72% 0.0 mm
16:54 13.7 °C 8.8 °C 1030.5 hPa NE 4.1 km/h 8 km/h 72% 0.0 mm
16:59 13.7 °C 8.7 °C 1030.4 hPa NNE 3.9 km/h 8 km/h 72% 0.0 mm
17:04 13.7 °C 8.9 °C 1030.4 hPa NE 4.4 km/h 8 km/h 72.8% 0.0 mm
17:09 13.7 °C 8.9 °C 1030.4 hPa NE 4.7 km/h 10 km/h 73% 0.0 mm
17:14 13.6 °C 8.8 °C 1030.4 hPa NE 5.4 km/h 9.7 km/h 73% 0.0 mm
17:19 13.6 °C 8.8 °C 1030.4 hPa NE 5.8 km/h 8 km/h 73% 0.0 mm
17:24 13.5 °C 8.8 °C 1030.5 hPa NNE 5.3 km/h 8 km/h 73.3% 0.0 mm
17:29 13.4 °C 8.9 °C 1030.5 hPa NE 5 km/h 8 km/h 74% 0.0 mm
17:34 13.4 °C 8.8 °C 1030.5 hPa NNE 4.3 km/h 8 km/h 74% 0.0 mm
17:39 13.4 °C 8.8 °C 1030.5 hPa NNE 3.9 km/h 8 km/h 74% 0.0 mm
17:44 13.3 °C 8.9 °C 1030.5 hPa NNE 4.4 km/h 8 km/h 74.8% 0.0 mm
17:49 13.2 °C 8.9 °C 1030.5 hPa NNE 4.7 km/h 8 km/h 75% 0.0 mm
17:54 13.2 °C 8.9 °C 1030.5 hPa NNE 3.5 km/h 8.4 km/h 75% 0.0 mm
17:59 13.1 °C 8.9 °C 1030.5 hPa NE 2.9 km/h 8 km/h 76% 0.0 mm
18:04 13 °C 8.9 °C 1030.5 hPa NE 4.1 km/h 8 km/h 76% 0.0 mm
18:09 12.9 °C 8.8 °C 1030.6 hPa NE 4.7 km/h 8 km/h 76% 0.0 mm
18:14 12.9 °C 8.9 °C 1030.6 hPa Este 3.5 km/h 6.4 km/h 76.7% 0.0 mm
18:19 12.8 °C 8.9 °C 1030.6 hPa NE 2.9 km/h 7.6 km/h 77% 0.0 mm
18:24 12.8 °C 8.9 °C 1030.7 hPa NE 4.2 km/h 9.5 km/h 77% 0.0 mm
18:29 12.8 °C 8.9 °C 1030.7 hPa ENE 5 km/h 9.7 km/h 77% 0.0 mm
18:34 12.8 °C 8.9 °C 1030.7 hPa ENE 5 km/h 8 km/h 77% 0.0 mm
18:39 12.8 °C 8.9 °C 1030.8 hPa ENE 5 km/h 8 km/h 77% 0.0 mm
18:44 12.8 °C 8.9 °C 1030.8 hPa ENE 3.9 km/h 8 km/h 77% 0.0 mm
18:49 12.8 °C 8.9 °C 1030.8 hPa ENE 3.2 km/h 8 km/h 77% 0.0 mm
18:54 12.8 °C 8.9 °C 1030.8 hPa ENE 3 km/h 6.4 km/h 77% 0.0 mm
18:59 12.7 °C 8.8 °C 1030.8 hPa ENE 2.9 km/h 10 km/h 77% 0.0 mm
19:04 12.7 °C 8.8 °C 1030.8 hPa NE 4.1 km/h 9.7 km/h 77.1% 0.0 mm
19:09 12.6 °C 8.9 °C 1030.9 hPa NNE 4.7 km/h 8 km/h 78% 0.0 mm
19:14 12.5 °C 8.7 °C 1030.9 hPa North 4.7 km/h 8.4 km/h 78% 0.0 mm
19:19 12.2 °C 8.5 °C 1030.9 hPa NNO 4.7 km/h 8 km/h 78.2% 0.0 mm
19:24 11.9 °C 8.4 °C 1031.2 hPa NO 4.7 km/h 8 km/h 79.2% 0.0 mm
19:29 11.7 °C 8.4 °C 1031.2 hPa North 4.6 km/h 7.4 km/h 80.2% 0.0 mm
19:34 11.6 °C 8.5 °C 1031.2 hPa North 4.7 km/h 8 km/h 81.5% 0.0 mm
19:39 11.4 °C 8.4 °C 1031.2 hPa North 4.7 km/h 8.4 km/h 82% 0.0 mm
19:44 11.3 °C 8.5 °C 1031.2 hPa NNE 4.2 km/h 8 km/h 82.8% 0.0 mm
19:49 11.3 °C 8.5 °C 1031.2 hPa NNE 3.9 km/h 8 km/h 83% 0.0 mm
19:54 11.2 °C 8.4 °C 1031.2 hPa NNE 3.9 km/h 6.4 km/h 83% 0.0 mm
19:59 11.2 °C 8.4 °C 1031.2 hPa NNE 3.9 km/h 7.4 km/h 83.3% 0.0 mm
20:04 11.1 °C 8.5 °C 1031.2 hPa ENE 3.9 km/h 8 km/h 84% 0.0 mm
20:09 11.1 °C 8.5 °C 1031.3 hPa ESE 3.9 km/h 8.4 km/h 84% 0.0 mm
20:14 11.1 °C 8.5 °C 1031.3 hPa ESE 4.4 km/h 8 km/h 84% 0.0 mm
20:19 11.1 °C 8.5 °C 1031.3 hPa ESE 4.6 km/h 8 km/h 84% 0.0 mm
20:24 11.1 °C 8.5 °C 1031.3 hPa ESE 3.8 km/h 8 km/h 84% 0.0 mm
20:29 11 °C 8.3 °C 1031.3 hPa ESE 3.2 km/h 3.9 km/h 84% 0.0 mm
20:34 10.9 °C 8.3 °C 1031.3 hPa ESE 1.2 km/h 3.2 km/h 84% 0.0 mm
20:39 10.8 °C 8.2 °C 1031.4 hPa Calm   7.4 km/h 84% 0.0 mm
20:44 10.7 °C 8.1 °C 1031.4 hPa OSO 1.8 km/h 8 km/h 84.1% 0.0 mm
20:49 10.4 °C 8.1 °C 1031.4 hPa OSO 2.9 km/h 5.8 km/h 85% 0.0 mm
20:54 10.3 °C 7.9 °C 1031.4 hPa Oeste 2.5 km/h 7.4 km/h 85.1% 0.0 mm
20:59 10.2 °C 7.9 °C 1031.3 hPa Oeste 2.2 km/h 8 km/h 86% 0.0 mm
21:04 10.2 °C 7.9 °C 1031.3 hPa Oeste 3.3 km/h 8 km/h 86% 0.0 mm
21:09 10.1 °C 7.9 °C 1031.4 hPa Oeste 3.9 km/h 8 km/h 86% 0.0 mm
21:14 10.1 °C 8 °C 1031.4 hPa OSO 3.4 km/h 6.4 km/h 86.7% 0.0 mm
21:19 10.1 °C 8.1 °C 1031.4 hPa OSO 2.9 km/h 6.4 km/h 87% 0.0 mm
21:24 10.1 °C 8.1 °C 1031.4 hPa OSO 2.9 km/h 4.8 km/h 87% 0.0 mm
21:29 10.1 °C 7.9 °C 1031.3 hPa SE 2.9 km/h 4.8 km/h 86.2% 0.0 mm
21:34 10.1 °C 8 °C 1031.3 hPa SE 2.5 km/h 7.4 km/h 86.7% 0.0 mm
21:39 10 °C 8 °C 1031.5 hPa Sur 2.2 km/h 8 km/h 87% 0.0 mm
21:44 10 °C 7.9 °C 1031.5 hPa SSO 3.8 km/h 9.3 km/h 86.7% 0.0 mm
21:49 10 °C 7.8 °C 1031.5 hPa Sur 4.7 km/h 9.7 km/h 86% 0.0 mm
21:54 9.9 °C 7.7 °C 1031.5 hPa Sur 4.2 km/h 8 km/h 86% 0.0 mm
21:59 9.8 °C 7.6 °C 1031.5 hPa SSE 3.9 km/h 8 km/h 86% 0.0 mm
22:04 9.8 °C 7.5 °C 1031.5 hPa SSE 3.9 km/h 8 km/h 86% 0.0 mm
22:09 9.7 °C 7.4 °C 1031.6 hPa SSE 3.9 km/h 4.8 km/h 86% 0.0 mm
22:14 9.6 °C 7.3 °C 1031.6 hPa SSE 2.9 km/h 3.2 km/h 86% 0.0 mm
22:19 9.4 °C 7.2 °C 1031.6 hPa Sur 2.2 km/h 8.4 km/h 86% 0.0 mm
22:24 9.3 °C 7.2 °C 1031.7 hPa Sur 2.7 km/h 8.4 km/h 86.5% 0.0 mm
22:29 9.2 °C 7.2 °C 1031.7 hPa Sur 2.9 km/h 8 km/h 87% 0.0 mm
22:34 9.1 °C 7 °C 1031.7 hPa SSE 4.2 km/h 10.3 km/h 87% 0.0 mm
22:39 8.8 °C 6.9 °C 1031.7 hPa SSE 5 km/h 11.3 km/h 87.3% 0.0 mm
22:44 8.8 °C 6.9 °C 1031.6 hPa SSE 7 km/h 14.8 km/h 88% 0.0 mm
22:49 8.7 °C 6.9 °C 1031.6 hPa Sur 8.4 km/h 14.5 km/h 88% 0.0 mm
22:54 8.7 °C 6.9 °C 1031.7 hPa Sur 7.9 km/h 11.3 km/h 88.1% 0.0 mm
22:59 8.7 °C 7 °C 1031.7 hPa SSO 7.6 km/h 11.1 km/h 89% 0.0 mm
23:04 8.7 °C 7 °C 1031.7 hPa SSO 7.1 km/h 11.3 km/h 89% 0.0 mm
23:09 8.7 °C 7 °C 1031.7 hPa SO 6.9 km/h 11.3 km/h 89% 0.0 mm
23:14 8.7 °C 7 °C 1031.7 hPa SO 6.3 km/h 9.7 km/h 89% 0.0 mm
23:19 8.7 °C 7 °C 1031.7 hPa OSO 5.8 km/h 9.7 km/h 89% 0.0 mm
23:24 8.7 °C 7 °C 1031.8 hPa SO 4.6 km/h 8 km/h 89% 0.0 mm
23:29 8.7 °C 6.8 °C 1031.8 hPa SSO 3.9 km/h 8 km/h 88.1% 0.0 mm
23:34 8.6 °C 6.7 °C 1031.8 hPa SSO 4.3 km/h 8.4 km/h 88% 0.0 mm
23:39 8.6 °C 6.7 °C 1031.8 hPa Sur 4.7 km/h 8 km/h 88% 0.0 mm
23:44 8.5 °C 6.7 °C 1031.8 hPa SSE 4.7 km/h 8 km/h 88% 0.0 mm
23:49 8.4 °C 6.5 °C 1031.8 hPa SSE 4.7 km/h 9.3 km/h 88% 0.0 mm
23:54 8.3 °C 6.4 °C 1031.8 hPa SSE 5.4 km/h 11.1 km/h 88% 0.0 mm
23:59 8.2 °C 6.3 °C 1031.8 hPa Sur 5.8 km/h 11.3 km/h 88% 0.0 mm
Murcia-Puente Tocinos, España
Compliments of Weather Underground - 3 mb

La estación de MeteoMurcia.com, publica sus datos en los siguientes proyectos:

Weather Underground PWS IMURCIAP2 Meteoclimatic www.awekas.at

W3Counter
Web Analytics